Location: Hains Lake
(37.8540°N, 99.8578°W)
Time: 04:19:34
(UTC+00:00)

Tiros 1 despin weight - Pass Details

Date: 23 April 2021
Orbit: 593 x 642 km, 48.2° (Epoch: 07 May)

Event Time Altitude Azimuth Distance (km) Brightness Sun altitude
Rises 12:40:21 0° 284° (WNW) 2,910 ? 8.3°
Reaches altitude 10° 12:43:06 10° 299° (WNW) 1,995 ? 8.8°
Maximum altitude 12:46:46 23° 352° (N) 1,320 ? 9.5°
Drops below altitude 10° 12:50:24 10° 46° (NE) 1,970 ? 10.2°
Sets 12:53:05 0° 61° (ENE) 2,865 ? 10.8°
